User: anonymous   Login
Location: Unspecified
(0.0000°N, 0.0000°E)
Time: 22:18:21
(UTC+00:00)
Language:

STARLINK-33596 - Orbit

View from above orbital plane
View from above orbital plane
View from above satellite
View from above satellite

Ground track
Ground track

The orbit is defined by the following mean orbital elements,

1 62758U          26145.51235588 +.00000000 +00000-0 +71714-3 0 00009
2 62758  53.1589 325.5843 0001036  68.7648 291.3464 15.31732474    06
Epoch (UTC): 25 May 2026 12:17:47
Eccentricity: 0.0001036
inclination: 53.1589°
perigee height: 470 km
apogee height: 471 km
right ascension of ascending node: 325.5843°
argument of perigee: 68.7648°
revolutions per day: 15.31732474
mean anomaly at epoch: 291.3464°

The dashed part of the orbit path shows where the satellite is in the earth's shadow,  

DLR